Starlink 1817

operational
NORAD ID: 46715 Int'l Des: 2020-073 Owner: SPXS Country: US Constellation: starlink
LEOCIRCULARSTARLINK_TYPE

关于 Starlink 1817

正在加载描述...

实时位置

正在加载3D地球...

即将过境

高度历史

Altitude vs Time

uPlot chart will show altitude changes over time

两行轨道根数

1 46715U 20073AX 25353.33335648 .01637901 00000-0 64438-1 0 9991
2 46715 53.0533 241.9317 0000481 123.0199 192.9376 15.21804012 5768
Epoch: Dec 19, 2025 • Age: 11 hours

当前状态

高度 496.7 km
速度 7.62 km/s
星下点 4.50°N, 134.19°W
发射日期 Oct 18, 2020
运行时间 5.1 years
类型 internet

技术详情

分类 Payload
质量 260.00 kg
干质量 248.00 kg
总质量 260.00 kg
长度 0.20 m
直径 2.80 m
跨度 9.00 m
形状 Box + pan
制造商 SPXS
平台类型 Starlink
阶段状态 In Orbit
所有者/国家 SPXS/US

大型星座

Loading constellations...